Regional Weather Roundup
Issued by NWS

Home | Current Version | Previous Version | Text Only | Print | Product List | Glossary Off
Versions: 1 2 3 4 5 6 7 8 9 10 11 12 13 14 15 16 17 18 19 20 21 22 23 24 25 26 27 28 29 30 31 32 33 34 35 36 37 38 39 40 41 42 43 44 45 46 47 48 49

000
ASUS45 KBOU 301207
RWRCO

WEATHER ROUNDUP FOR COLORADO
NATIONAL WEATHER SERVICE DENVER/BOULDER CO
600 AM MDT WED JUL 30 2014

NOTE: "FAIR" INDICATES FEW OR NO CLOUDS BELOW 12000 FEET WITH NO
SIGNIFICANT WEATHER AND/OR OBSTRUCTIONS TO VISIBILITY.

COZ001>005-013-030-031-301300-
...NORTHWEST COLORADO...

CITY           SKY/WX    TMP DP  RH WIND       PRES   REMARKS
CRAIG          CLOUDY    51  50  97 CALM      30.29R
HAYDEN         CLOUDY    55  54  94 CALM      30.30R
MEEKER         PTCLDY    52  50  93 NE3       30.31R
MOUNT WERNER   NOT AVBL
STEAMBOAT SPGS CLOUDY    55  55  99 CALM      30.31S
WALDEN         CLOUDY    52  50  93 CALM      30.37S
$$

COZ006>008-011-301300-
...WEST CENTRAL VALLEYS...

CITY           SKY/WX    TMP DP  RH WIND       PRES   REMARKS
GRAND JUNCTION PTCLDY    58  56  93 CALM      30.21R
MONTROSE       CLEAR     56  53  90 S7        30.28R
EAGLE          MOCLDY    55  55 100 CALM      30.32S
RIFLE          PTCLDY    57  55  93 CALM      30.26R
DELTA          LGT RAIN  60  56  86 CALM      30.24R
NUCLA          PTCLDY    57  54  88 SE5       30.29S
$$

COZ017>023-064>068-301300-
...SOUTHWEST COLORADO...

CITY           SKY/WX    TMP DP  RH WIND       PRES   REMARKS
DURANGO        CLOUDY    58  55  90 CALM      30.27S
CORTEZ         CLEAR     57  54  89 NE3       30.24R
PAGOSA SPRINGS MOCLDY    57  51  81 CALM      30.34F
TELLURIDE      CLOUDY    54  48  82 CALM      30.43F
WOLF CREEK PAS NOT AVBL
$$

COZ009-010-012-014-032>034-037-058>063-301300-
...CENTRAL COLORADO...

CITY           SKY/WX    TMP DP  RH WIND       PRES   REMARKS
ASPEN          CLOUDY    51  49  92 CALM      30.36R
BUENA VISTA    MOCLDY    53  51  92 SW3       30.37R
COPPER MTN     CLOUDY    45  39  81 W6        30.60S
BERTHOUD PASS  FOG       37  36  93 MISG      30.64S VSB 1/4
COTTONWOOD PAS CLOUDY    54  43  66 CALM      30.47S
GUNNISON       CLOUDY    54  46  76 CALM      30.40R
KREMMLING      LGT RAIN  54  50  87 CALM      30.36R
LEADVILLE      CLOUDY    46  43  89 CALM      30.47R
MONARCH PASS   CLOUDY    41  37  87 W15       30.69S
SALIDA         MOCLDY    55  53  94 CALM      30.41R
SUNLIGHT       CLOUDY    45  45 100 CALM      30.55S
WILKERSON PASS FOG       43  41  93 NE10      30.58R VSB 1
$$

COZ069>075-301300-
...SAN LUIS VALLEY/SANGRE DE CRISTO MOUNTAINS...

CITY           SKY/WX    TMP DP  RH WIND       PRES   REMARKS
ALAMOSA        PTCLDY    51  50  96 CALM      30.33S
LA VETA PASS   PTCLDY    45  45 100 SW3       30.48S
SAGUACHE       PTCLDY    52  46  82 NW5       30.36S
$$

COZ035-036-038>040-301300-
...NORTHERN COLORADO FRONT RANGE...

CITY           SKY/WX    TMP DP  RH WIND       PRES   REMARKS
DENVER INTL AP CLOUDY    59  57  93 NE9       30.28R
DMNS CITY PARK   N/A     58  57  97 NE7       30.28R
AURORA         LGT RAIN  57  57 100 NE7       30.30R
FRONT RANGE AP LGT RAIN  59  59 100 NE8       30.29R
ERIE MUNI ARPT CLOUDY    59  58  96 NE7       30.28S
BOULDER MUN AP   N/A    N/A N/A N/A MISG        N/A
CENTENNIAL     CLOUDY    57  55  93 NE6       30.30R
BROOMFIELD     HVY RAIN  57  57 100 NE7       30.30S
FORT COLLINS   CLOUDY    59  57  94 NE6       30.30S
LONGMONT       LGT RAIN  61  59  94 N6        30.30S
$$

COZ041-046-047-076>085-087-088-301300-
...PIKES PEAK/PALMER DIVIDE AND SOUTHERN FOOTHILLS...

CITY           SKY/WX    TMP DP  RH WIND       PRES   REMARKS
COLO. SPRINGS  LGT RAIN  59  56  89 NE10      30.29R FOG
A. F. ACADEMY  DRIZZLE   55  55 100 N9        30.31R
ELLICOTT       CLOUDY    58  55  90 NE6       30.28R
FALCON         HVY RAIN  55  55  98 N8        30.34R
FORT CARSON    DRIZZLE   59  59 100 E3        30.27R
LIMON          CLOUDY    58  57  97 NE13      30.26S
MONUMENT HILL  DRIZZLE   52  52 100 NE5       30.33R
TRINIDAD       CLOUDY    62  57  83 NW6       30.25R
$$

COZ042>045-048>051-090-091-301300-
...NORTHEAST COLORADO...

CITY           SKY/WX    TMP DP  RH WIND       PRES   REMARKS
GREELEY ARPT   NOT AVBL
AKRON          LGT RAIN  59  58  96 E9        30.26R FOG
BURLINGTON     CLOUDY    60  57  89 NE16G24   30.21R
WRAY             N/A    N/A N/A N/A E13       30.23R
STERLING       CLOUDY    64  63  94 E5        30.24R
HOLYOKE        CLOUDY    63  61  94 E7        30.24R
FORT MORGAN    CLOUDY    61  59  94 NE7       30.27R
$$

COZ086-089-092>099-301300-
...SOUTHEAST COLORADO...

CITY           SKY/WX    TMP DP  RH WIND       PRES   REMARKS
PUEBLO         CLOUDY    63  60  90 CALM      30.21R
LA JUNTA       CLOUDY    64  61  90 N10       30.17S
LAMAR          CLOUDY    64  62  93 NE8       30.11R
SPRINGFIELD      N/A     61  60  97 N14       30.12R
$$


USA.gov is the U.S. government's official web portal to all federal, state and local government web resources and services.